When you browse on this site, cookies collect data to enhance your experience and personalize the content and advertising you see.
Visit our Privacy Policy to learn more. By continuing to use the site, you agree to this use of cookies and data.
  • In United Kingdom
  • List of Countries
  • For 7 days
  • Water Temperature
  • Weather Map
  • Weather Widgets
  • user-avatar
    Login

    Hourly Weather Kitzbuhel

    Today, 26 January, Sunday

    Time Temperature Precipitation Wind Pressure Humidity
    00:00 +1°C° 0 mm 1 mps 677 mmHg 82%
    01:00 -1°C° 0 mm 2 mps 677 mmHg 82%
    02:00 +1°C° 0 mm 1 mps 677 mmHg 82%
    03:00 +1°C° 0 mm 1 mps 677 mmHg 82%
    04:00 +1°C° 0 mm 1 mps 677 mmHg 82%
    05:00 +1°C° 0 mm 1 mps 677 mmHg 81%
    06:00 +1°C° 0 mm 1 mps 677 mmHg 81%
    07:00 +1°C° 0 mm 1 mps 677 mmHg 81%
    08:00 +2°C° 0 mm 1 mps 677 mmHg 84%
    09:00 +3°C° 0 mm 1 mps 677 mmHg 86%
    10:00 +4°C° 0 mm 1 mps 677 mmHg 89%
    11:00 +4°C° 0.1 mm 1 mps 677 mmHg 91%
    12:00 +3°C° 0.1 mm 0 mps 677 mmHg 92%
    13:00 +4°C° 0.1 mm 0 mps 676 mmHg 94%
    14:00 +3°C° 0.1 mm 0 mps 676 mmHg 95%
    15:00 +3°C° 0.1 mm 0 mps 676 mmHg 96%
    16:00 +3°C° 0.1 mm 0 mps 676 mmHg 96%
    17:00 +3°C° 0.1 mm 1 mps 676 mmHg 95%
    18:00 +3°C° 0.1 mm 1 mps 676 mmHg 93%
    19:00 +2°C° 0.1 mm 1 mps 676 mmHg 92%
    20:00 +2°C° 0 mm 1 mps 676 mmHg 91%
    21:00 +1°C° 0 mm 1 mps 676 mmHg 89%
    22:00 0°C° 0 mm 1 mps 676 mmHg 88%
    23:00 0°C° 0 mm 1 mps 676 mmHg 88%

    Tomorrow, 27 January, Monday

    Time Temperature Precipitation Wind Pressure Humidity
    00:00 0°C° 0 mm 1 mps 676 mmHg 87%
    01:00 0°C° 0 mm 1 mps 676 mmHg 87%
    02:00 0°C° 0 mm 1 mps 676 mmHg 87%
    03:00 0°C° 0 mm 1 mps 675 mmHg 86%
    04:00 0°C° 0 mm 1 mps 675 mmHg 86%
    05:00 0°C° 0 mm 1 mps 675 mmHg 86%
    06:00 0°C° 0 mm 1 mps 675 mmHg 85%
    07:00 0°C° 0 mm 1 mps 675 mmHg 85%
    08:00 +1°C° 0 mm 1 mps 676 mmHg 84%
    09:00 +2°C° 0 mm 1 mps 676 mmHg 83%
    10:00 +3°C° 0 mm 1 mps 676 mmHg 82%
    11:00 +4°C° 0 mm 1 mps 676 mmHg 83%
    12:00 +5°C° 0 mm 1 mps 675 mmHg 84%
    13:00 +4°C° 0 mm 0 mps 675 mmHg 85%
    14:00 +5°C° 0 mm 1 mps 674 mmHg 85%
    15:00 +5°C° 0 mm 1 mps 674 mmHg 85%
    16:00 +4°C° 0 mm 1 mps 673 mmHg 86%
    17:00 +2°C° 0 mm 2 mps 673 mmHg 84%
    18:00 +2°C° 0 mm 2 mps 673 mmHg 82%
    19:00 0°C° 0 mm 3 mps 673 mmHg 80%
    20:00 +1°C° 0 mm 2 mps 672 mmHg 80%
    21:00 +1°C° 0 mm 2 mps 672 mmHg 80%
    22:00 +1°C° 0 mm 2 mps 672 mmHg 80%
    23:00 +1°C° 0 mm 2 mps 671 mmHg 80%

    Day after tomorrow, 28 January, Tuesday

    Time Temperature Precipitation Wind Pressure Humidity
    00:00 -1°C° 0 mm 2 mps 670 mmHg 80%
    01:00 -1°C° 0 mm 2 mps 670 mmHg 81%
    02:00 -1°C° 0 mm 3 mps 669 mmHg 80%
    03:00 -1°C° 0 mm 3 mps 668 mmHg 80%
    04:00 -1°C° 0 mm 3 mps 668 mmHg 79%
    05:00 -1°C° 0 mm 3 mps 667 mmHg 78%
    06:00 -1°C° 0 mm 3 mps 667 mmHg 78%
    07:00 -1°C° 0 mm 3 mps 666 mmHg 77%
    08:00 -1°C° 0 mm 3 mps 666 mmHg 78%
    09:00 +1°C° 0 mm 2 mps 666 mmHg 79%
    10:00 +2°C° 0 mm 2 mps 666 mmHg 80%
    11:00 +2°C° 0.3 mm 2 mps 665 mmHg 83%
    12:00 +3°C° 0.3 mm 1 mps 665 mmHg 87%
    13:00 +3°C° 0.3 mm 1 mps 664 mmHg 91%
    14:00 +1°C° 2.2 mm 2 mps 664 mmHg 89%
    15:00 -1°C° 2.2 mm 2 mps 665 mmHg 88%
    16:00 -2°C° 2.2 mm 2 mps 665 mmHg 87%
    17:00 -3°C° 0.3 mm 2 mps 665 mmHg 86%
    18:00 -3°C° 0.3 mm 2 mps 666 mmHg 84%
    19:00 -4°C° 0.3 mm 2 mps 667 mmHg 83%
    20:00 -5°C° 0 mm 2 mps 667 mmHg 83%
    21:00 -6°C° 0 mm 2 mps 667 mmHg 82%
    22:00 -7°C° 0 mm 2 mps 667 mmHg 81%
    23:00 -7°C° 0 mm 2 mps 667 mmHg 76%

    29 January, Wednesday

    Time Temperature Precipitation Wind Pressure Humidity
    00:00 -8°C° 0 mm 3 mps 667 mmHg 71%
    01:00 -8°C° 0 mm 3 mps 666 mmHg 66%
    02:00 -7°C° 0.1 mm 3 mps 666 mmHg 67%
    03:00 -6°C° 0.1 mm 3 mps 666 mmHg 68%
    04:00 -5°C° 0.1 mm 3 mps 666 mmHg 69%
    05:00 -5°C° 0.3 mm 2 mps 667 mmHg 75%
    06:00 -5°C° 0.3 mm 2 mps 667 mmHg 81%
    07:00 -5°C° 0.3 mm 2 mps 667 mmHg 86%
    08:00 -5°C° 1.1 mm 2 mps 668 mmHg 86%
    09:00 -5°C° 1.1 mm 3 mps 668 mmHg 85%
    10:00 -4°C° 1.1 mm 3 mps 669 mmHg 85%
    11:00 -4°C° 0.2 mm 3 mps 669 mmHg 80%
    12:00 -3°C° 0.2 mm 4 mps 670 mmHg 75%
    13:00 -3°C° 0.2 mm 4 mps 670 mmHg 71%
    14:00 -2°C° 0.1 mm 3 mps 670 mmHg 73%
    15:00 -4°C° 0.1 mm 3 mps 671 mmHg 75%
    16:00 -3°C° 0.1 mm 2 mps 671 mmHg 77%
    17:00 -4°C° 0 mm 2 mps 671 mmHg 79%
    18:00 -6°C° 0 mm 2 mps 672 mmHg 80%
    19:00 -6°C° 0 mm 1 mps 672 mmHg 81%
    20:00 -4°C° 0.3 mm 1 mps 673 mmHg 85%
    21:00 -4°C° 0.3 mm 1 mps 674 mmHg 90%
    22:00 -4°C° 0.3 mm 1 mps 674 mmHg 94%
    23:00 -3°C° 0.8 mm 1 mps 674 mmHg 94%

    30 January, Thursday

    Time Temperature Precipitation Wind Pressure Humidity
    00:00 -3°C° 0.8 mm 1 mps 675 mmHg 95%
    01:00 -3°C° 0.8 mm 1 mps 675 mmHg 95%
    02:00 -3°C° 0.9 mm 1 mps 675 mmHg 95%
    03:00 -3°C° 0.9 mm 1 mps 675 mmHg 95%
    04:00 -3°C° 0.9 mm 1 mps 676 mmHg 95%
    05:00 -3°C° 0.4 mm 1 mps 676 mmHg 95%
    06:00 -3°C° 0.4 mm 1 mps 676 mmHg 94%
    07:00 -4°C° 0.4 mm 1 mps 676 mmHg 94%
    08:00 -3°C° 0 mm 1 mps 677 mmHg 90%
    09:00 -2°C° 0 mm 1 mps 677 mmHg 87%
    10:00 -1°C° 0 mm 1 mps 677 mmHg 84%
    11:00 0°C° 0 mm 1 mps 677 mmHg 80%
    12:00 +1°C° 0 mm 1 mps 677 mmHg 76%
    13:00 +3°C° 0 mm 1 mps 676 mmHg 72%
    14:00 +1°C° 0 mm 0 mps 676 mmHg 75%
    15:00 +1°C° 0 mm 0 mps 675 mmHg 77%
    16:00 +1°C° 0 mm 0 mps 675 mmHg 80%
    17:00 +1°C° 0 mm 1 mps 675 mmHg 74%
    18:00 -1°C° 0 mm 1 mps 675 mmHg 69%
    19:00 -4°C° 0 mm 2 mps 675 mmHg 64%
    20:00 -4°C° 0 mm 2 mps 675 mmHg 62%
    21:00 -4°C° 0 mm 2 mps 675 mmHg 60%
    22:00 -4°C° 0 mm 2 mps 675 mmHg 58%
    23:00 -4°C° 0 mm 2 mps 675 mmHg 57%

    31 January, Friday

    Time Temperature Precipitation Wind Pressure Humidity
    00:00 -3°C° 0 mm 2 mps 675 mmHg 57%
    01:00 -3°C° 0 mm 2 mps 675 mmHg 56%
    02:00 -3°C° 0 mm 2 mps 675 mmHg 56%
    03:00 -3°C° 0 mm 2 mps 675 mmHg 56%
    04:00 -3°C° 0 mm 2 mps 675 mmHg 56%
    05:00 -3°C° 0 mm 2 mps 675 mmHg 56%
    06:00 -2°C° 0 mm 2 mps 675 mmHg 56%
    07:00 0°C° 0 mm 1 mps 675 mmHg 57%
    08:00 +1°C° 0 mm 1 mps 675 mmHg 60%
    09:00 +2°C° 0 mm 1 mps 676 mmHg 64%
    10:00 +4°C° 0 mm 1 mps 676 mmHg 68%
    11:00 +5°C° 0 mm 1 mps 676 mmHg 75%
    12:00 +5°C° 0 mm 1 mps 676 mmHg 82%
    13:00 +6°C° 0 mm 1 mps 676 mmHg 89%
    14:00 +6°C° 0 mm 1 mps 676 mmHg 86%
    15:00 +5°C° 0 mm 1 mps 676 mmHg 82%
    16:00 +5°C° 0 mm 1 mps 676 mmHg 79%
    17:00 +4°C° 0 mm 1 mps 676 mmHg 78%
    18:00 +4°C° 0 mm 1 mps 677 mmHg 77%
    19:00 +3°C° 0 mm 1 mps 677 mmHg 75%
    20:00 +4°C° 0 mm 1 mps 677 mmHg 79%
    21:00 +4°C° 0 mm 1 mps 677 mmHg 83%
    22:00 +4°C° 0 mm 1 mps 678 mmHg 86%
    23:00 +4°C° 0 mm 1 mps 678 mmHg 86%
    Show more